Location: ??????
(38.1303°N, 24.0039°E)
Time: 13:26:16
(UTC+00:00)

Cosmos 2298 Rocket - Pass Details

Date: 20 June 2021
Orbit: 775 x 784 km, 74.0° (Epoch: 03 August)

Event Time Altitude Azimuth Distance (km) Brightness Sun altitude
Rises 00:47:42 0° 342° (NNW) 3,275 7.8 -20.0°
Reaches altitude 10° 00:50:06 10° 344° (NNW) 2,344 7.0 -19.7°
Maximum altitude 00:55:26 79° 71° (ENE) 801 4.1 -19.1°
Enters shadow 01:00:31 11° 158° (SSE) 2,242 6.1 -18.5°
